Wind_Speed
24 25 25 23 21 19 16 14 13 11 10 7 5 4 3 4 5 6 7 7 7 8 8 8 9 10 8 7 6 6 5 5 5 5 4 5 5 6 6 7 7 8 9 9 10 10 10 10 11
26 27 27 26 24 21 18 16 15 13 10 8 5 3 3 4 6 7 8 8 8 8 8 8 9 8 7 6 5 5 4 4 4 4 4 4 5 5 5 6 6 7 8 8 9 9 10 10 10
27 28 30 29 27 23 19 18 17 14 11 9 6 4 2 5 7 9 9 9 8 7 7 8 7 7 6 5 4 4 4 3 3 3 3 3 4 4 4 5 5 6 7 8 8 9 9 9 9
27 29 31 31 29 25 22 20 19 17 13 11 7 4 3 5 7 9 9 9 7 6 6 7 7 6 6 5 4 4 3 3 2 2 2 2 2 3 3 4 5 5 6 7 8 8 9 9 9
26 30 31 31 30 28 25 23 21 19 16 13 9 5 3 4 6 8 9 7 5 4 5 6 6 5 5 5 4 4 4 3 2 2 1 0 1 2 3 3 4 5 6 7 8 9 9 9 9
26 28 30 28 29 30 27 25 24 22 19 16 12 8 4 3 5 7 7 5 3 4 5 5 6 6 6 6 6 5 4 4 3 3 2 1 1 2 2 3 3 5 6 7 9 9 9 9 9
27 26 26 26 29 33 30 29 26 25 22 18 13 10 6 3 5 6 5 4 3 3 4 5 6 7 7 7 7 7 6 6 5 4 2 1 0 1 1 2 3 5 6 8 9 10 10 9 9
28 25 23 23 28 33 33 32 30 28 24 20 15 12 8 4 4 5 5 3 3 3 5 6 7 8 9 9 9 8 7 6 5 4 3 2 1 1 1 3 4 6 7 9 10 11 11 10 10
29 25 21 20 25 33 37 35 33 31 27 22 18 14 9 5 4 4 3 3 3 4 5 7 8 9 10 10 10 9 8 7 6 5 4 3 2 2 3 4 5 7 8 9 10 11 11 11 11
30 24 18 19 25 34 40 39 36 33 29 24 20 16 11 6 4 4 3 3 4 5 7 8 9 9 10 10 10 9 9 8 7 6 4 3 3 3 4 5 6 7 8 9 10 11 11 11 11
32 26 21 22 28 37 43 43 41 37 32 27 23 18 13 8 5 5 4 3 5 6 7 9 9 9 10 10 10 10 9 8 7 6 5 4 4 4 5 5 6 7 9 10 10 11 11 11 11
33 28 25 25 29 37 45 46 44 41 34 30 27 22 16 10 8 6 5 5 5 7 8 9 10 10 10 10 10 9 9 9 8 7 6 5 5 6 7 7 8 9 9 10 11 11 11 11 11
34 30 28 27 29 35 44 47 45 42 37 32 29 24 18 13 10 9 7 7 7 8 10 10 11 11 11 10 10 10 9 9 8 8 7 7 8 8 8 9 10 10 10 11 11 11 12 13 13
34 32 29 28 28 33 42 46 46 41 38 34 30 24 20 16 13 11 8 8 9 8 10 11 11 12 12 11 11 11 10 10 9 9 10 10 10 10 10 11 11 12 11 12 12 13 13 14 15
34 32 29 27 27 31 39 45 45 41 38 34 31 27 23 19 16 12 10 10 11 10 10 12 12 13 13 13 13 12 12 11 11 12 12 12 13 13 13 13 13 14 14 13 14 14 15 16 17
33 31 28 26 26 30 35 42 42 41 39 36 33 29 25 22 18 15 12 11 12 12 12 14 14 14 14 14 15 14 13 14 14 14 14 15 15 16 17 17 16 17 17 17 16 17 17 18 19
32 30 27 26 26 29 33 38 41 42 40 38 34 31 27 24 20 16 14 13 13 15 16 15 16 17 17 17 16 15 15 15 16 17 18 19 20 20 21 21 20 20 21 20 20 20 20 20 22
31 30 27 26 26 28 30 35 40 42 41 39 36 33 29 25 21 18 16 15 15 16 19 18 19 19 19 19 18 17 18 18 19 20 21 22 23 24 25 25 25 25 25 25 24 24 24 23 24
31 29 27 26 26 27 29 32 38 41 41 40 38 35 31 27 24 21 17 17 17 18 18 18 20 20 20 20 19 20 21 23 23 23 24 24 24 26 27 28 27 27 26 27 28 28 27 27 27
29 28 26 26 27 26 27 29 34 39 41 40 39 36 33 29 26 22 20 19 19 19 20 19 20 21 22 23 23 23 27 27 28 28 28 28 28 30 30 30 30 30 29 28 29 30 30 30 30
28 27 26 26 27 26 26 27 30 33 35 37 36 35 33 31 28 25 23 21 20 17 19 21 21 22 23 24 25 25 27 29 30 31 30 30 31 32 32 33 32 31 30 30 31 31 31 32 32
27 27 27 27 27 26 25 25 27 29 29 31 31 32 32 31 28 26 24 23 22 22 21 21 23 24 25 25 28 29 30 31 32 31 31 32 31 32 31 32 32 32 33 33 34 34 35 35 36
25 28 28 29 28 26 24 25 26 26 26 27 26 27 28 29 28 28 26 24 24 24 24 24 24 25 27 28 30 31 33 34 34 32 32 32 31 31 32 33 33 34 34 35 35 36 36 37 37
26 29 30 30 29 27 26 26 27 27 27 26 26 25 26 27 27 28 27 26 26 26 26 26 26 27 30 32 34 35 35 35 36 35 33 33 34 34 34 35 35 37 37 37 37 38 38 39 39
27 29 29 30 30 29 27 28 29 29 28 28 28 28 28 29 29 29 29 28 28 28 29 30 31 32 34 36 37 37 36 38 37 36 37 36 36 37 37 38 38 39 39 39 40 40 41 41 42
27 29 29 30 30 29 28 29 29 29 29 30 31 32 32 32 32 32 32 32 32 33 33 34 36 37 38 39 40 39 40 40 40 40 40 39 39 40 40 40 41 41 41 42 42 43 43 44 45
26 28 29 29 29 30 30 30 30 31 30 31 32 33 33 33 34 34 35 35 36 36 37 37 39 41 41 42 42 42 42 43 43 43 42 42 41 42 42 42 43 44 44 45 45 47 48 49 50
25 26 27 28 28 28 30 31 31 32 33 33 33 34 34 34 35 36 37 38 39 40 41 42 43 43 44 44 45 45 46 46 45 44 44 43 44 44 44 46 46 46 47 48 50 51 52 53 54
24 25 27 28 29 28 29 31 32 32 33 34 35 36 37 38 38 38 38 39 40 41 42 43 44 45 46 47 46 46 46 46 46 46 46 46 47 47 47 48 49 50 52 53 53 55 56 57 58
23 24 25 26 27 29 31 32 33 33 34 35 36 38 38 39 40 39 39 39 39 39 40 42 42 43 43 43 44 45 45 46 46 46 47 49 49 50 50 51 52 53 55 55 57 58 59 60 61
Wind_Direction
218 211 206 204 206 211 218 222 225 225 221 213 214 226 257 285 297 300 295 294 280 269 264 263 264 263 259 255 256 259 261 267 273 278 283 290 296 303 309 313 316 317 319 319 317 316 316 317 318
223 216 210 206 208 210 218 226 232 234 229 225 228 241 278 322 328 332 319 307 291 274 262 256 254 251 245 241 243 242 247 259 271 278 286 292 298 304 311 316 319 320 321 320 318 316 315 315 316
228 222 215 209 208 211 216 225 234 235 232 227 228 245 290 331 336 332 321 311 295 278 261 249 241 234 227 222 219 221 232 247 263 273 284 295 304 313 321 326 327 326 325 322 319 316 317 318 318
233 227 222 215 209 210 216 223 234 235 234 234 238 258 293 337 337 330 319 309 293 274 253 238 228 219 212 205 199 200 207 222 236 251 273 302 321 330 334 335 333 328 323 318 316 317 320 321 318
237 232 228 220 209 209 215 223 231 238 238 239 241 250 280 321 333 329 318 303 284 259 239 221 211 201 193 186 180 179 184 190 195 200 193 335 341 337 338 339 333 326 320 316 316 319 322 322 319
240 239 234 226 212 209 213 220 227 234 239 242 245 249 268 306 328 325 316 295 269 241 225 209 192 179 173 167 163 162 161 161 158 154 147 119 10 354 346 334 326 321 316 315 317 320 322 323 321
242 244 241 231 214 210 212 219 226 233 237 242 246 249 254 294 324 322 310 285 249 214 205 194 175 162 157 156 156 154 152 151 150 148 143 131 52 352 330 319 316 313 311 313 316 318 320 321 319
241 245 245 235 219 210 212 219 225 231 236 242 246 245 245 267 318 323 306 268 225 194 183 179 166 156 154 153 153 153 155 157 158 156 156 159 172 246 294 304 309 311 309 311 314 315 318 318 314
238 244 248 238 221 209 213 219 224 230 235 238 241 242 246 258 297 306 291 241 208 189 177 171 163 157 157 158 160 162 165 168 169 168 171 183 207 248 275 294 305 307 307 308 311 312 312 313 311
236 242 243 231 218 208 211 218 223 228 230 232 237 240 248 254 274 275 272 228 199 192 181 171 167 165 165 168 170 172 172 175 177 178 186 201 225 255 270 286 296 302 305 306 308 312 315 316 311
233 236 233 227 218 209 210 216 222 226 228 230 235 239 244 247 255 251 253 219 201 194 186 181 178 179 180 180 180 181 181 183 184 188 197 212 231 250 259 272 286 294 301 304 307 309 312 315 315
230 230 230 226 221 213 210 215 220 225 227 230 235 238 239 242 248 241 238 222 206 198 199 198 194 192 194 193 192 192 191 191 194 200 210 220 231 244 255 267 274 286 295 302 306 308 309 311 312
228 227 228 227 225 218 213 215 220 224 226 228 233 238 241 245 248 238 236 231 219 208 205 205 204 202 202 201 199 200 202 203 205 213 223 229 235 245 256 267 271 280 289 296 302 305 307 308 310
225 226 228 230 228 221 215 216 220 223 226 229 233 237 240 247 247 238 232 231 225 223 222 218 218 215 214 214 212 210 216 219 221 226 233 238 245 252 261 266 271 279 287 296 299 301 302 304 306
224 225 227 229 228 223 217 216 219 221 227 230 233 236 241 244 245 239 233 230 226 226 231 228 229 227 225 227 224 221 224 230 234 238 243 248 254 259 265 271 274 277 283 289 296 298 298 301 304
222 224 224 226 225 222 217 215 218 221 226 230 233 238 242 242 240 234 231 230 227 226 231 235 235 234 235 237 233 231 236 240 244 248 254 260 265 268 270 272 276 279 280 282 287 291 294 297 299
220 220 220 222 223 221 216 213 217 221 226 230 234 238 242 241 236 234 233 234 232 230 228 232 234 236 240 243 243 245 248 251 256 258 261 266 270 273 272 274 277 279 278 278 281 285 289 292 293
218 217 215 219 221 220 217 213 216 222 226 230 234 237 240 240 236 233 235 238 235 233 230 231 237 241 245 249 251 254 257 258 262 264 264 268 271 274 273 274 278 277 277 278 279 282 284 285 286
218 215 212 215 220 221 219 217 217 223 227 230 233 236 238 239 238 235 237 239 240 235 231 235 238 243 247 253 259 260 260 261 265 267 269 270 274 275 274 275 277 278 280 281 280 280 280 280 282
217 214 209 212 219 221 221 221 221 225 231 234 235 235 236 236 236 238 237 239 238 233 232 235 240 246 248 251 258 267 266 264 267 268 270 272 276 278 277 277 278 280 280 281 281 283 281 280 284
213 211 206 209 217 220 220 222 223 227 231 234 236 235 232 232 235 237 235 237 240 240 240 240 244 246 249 255 259 268 269 270 273 273 277 280 283 282 279 278 280 283 283 284 284 284 286 287 286
208 206 204 207 214 217 219 220 223 226 228 230 232 231 228 228 232 235 234 236 242 246 247 246 246 250 255 261 265 268 272 274 276 277 281 284 290 288 287 285 284 287 287 287 287 285 287 286 285
205 205 204 207 212 214 217 217 219 221 222 224 224 224 224 227 233 234 236 239 244 249 254 255 255 258 263 266 270 270 274 276 280 281 284 287 289 291 291 291 289 289 290 290 288 288 289 289 287
203 206 206 208 212 213 216 217 215 218 219 219 220 221 224 228 231 236 240 244 248 253 257 260 264 265 267 270 272 273 276 280 283 286 287 289 290 292 292 291 291 291 291 290 290 289 290 289 288
203 206 206 208 212 215 217 220 218 218 220 222 223 225 227 230 234 239 244 248 251 255 259 263 265 267 269 271 274 275 279 284 286 289 292 293 294 292 292 292 291 291 290 289 289 289 289 290 289
203 206 208 211 215 218 221 225 224 223 225 226 228 231 234 237 242 245 248 252 255 259 261 264 266 267 268 270 273 276 280 285 288 291 292 291 292 291 291 291 290 290 288 288 289 290 290 290 290
204 207 210 215 218 222 225 230 231 229 230 232 235 239 243 246 250 252 254 257 259 262 263 265 266 268 270 272 274 279 283 285 286 289 290 289 289 290 290 289 290 289 288 289 289 290 290 291 291
206 209 212 217 221 227 232 235 238 238 238 240 243 246 249 253 256 257 259 261 263 265 266 267 269 271 273 275 276 280 282 284 286 285 286 286 287 287 287 288 289 289 289 290 291 291 292 291 291
211 214 217 221 226 232 237 240 242 245 246 248 250 253 255 258 260 262 265 266 267 268 269 271 270 271 273 275 277 279 280 282 283 284 284 284 285 286 287 288 289 290 290 291 290 290 290 291 291
217 220 223 226 231 236 241 244 245 249 252 254 255 258 261 263 264 266 268 270 270 272 272 272 272 272 275 277 277 278 278 280 280 281 282 283 285 285 287 288 289 290 290 289 289 290 290 291 290
Height
5873 5876 5878 5881 5883 5885 5885 5886 5887 5888 5888 5889 5889 5889 5890 5891 5892 5895 5893 5892 5891 5892 5892 5892 5893 5894 5894 5895 5895 5896 5897 5898 5899 5900 5901 5902 5902 5903 5903 5903 5903 5903 5903 5903 5903 5902 5902 5902 5902
5870 5873 5876 5878 5880 5882 5884 5884 5885 5886 5887 5887 5888 5888 5888 5888 5889 5890 5890 5890 5890 5890 5890 5891 5892 5892 5893 5893 5894 5895 5896 5897 5898 5898 5899 5900 5901 5901 5902 5902 5902 5902 5902 5901 5901 5901 5901 5901 5901
5866 5869 5872 5874 5877 5880 5882 5882 5883 5884 5885 5886 5886 5886 5887 5887 5888 5888 5888 5888 5888 5888 5889 5890 5890 5891 5892 5892 5893 5894 5895 5896 5896 5897 5898 5899 5899 5900 5900 5900 5900 5900 5900 5900 5900 5900 5900 5900 5900
5863 5866 5868 5872 5875 5877 5879 5880 5880 5881 5883 5884 5885 5885 5885 5886 5887 5887 5887 5887 5887 5887 5888 5888 5889 5890 5891 5891 5892 5893 5894 5895 5895 5896 5897 5897 5898 5898 5899 5899 5899 5898 5898 5898 5897 5898 5898 5898 5898
5859 5861 5864 5867 5872 5875 5876 5877 5878 5879 5880 5882 5884 5884 5884 5885 5886 5886 5886 5886 5886 5886 5887 5888 5888 5889 5890 5890 5891 5892 5893 5894 5895 5896 5896 5897 5897 5897 5897 5897 5897 5897 5896 5896 5895 5896 5896 5896 5896
5855 5857 5860 5864 5869 5872 5873 5874 5875 5876 5878 5880 5882 5883 5883 5884 5884 5885 5885 5885 5885 5886 5887 5887 5888 5888 5889 5890 5891 5892 5893 5894 5894 5895 5896 5896 5896 5896 5896 5896 5896 5895 5895 5894 5894 5894 5895 5894 5894
5851 5853 5856 5861 5865 5869 5871 5871 5872 5874 5875 5878 5880 5881 5881 5882 5883 5884 5885 5885 5885 5885 5886 5887 5887 5888 5888 5889 5890 5891 5892 5893 5894 5895 5895 5895 5896 5896 5896 5895 5895 5894 5894 5893 5893 5893 5893 5892 5892
5846 5850 5852 5856 5860 5865 5867 5867 5869 5870 5873 5876 5878 5880 5880 5881 5882 5883 5883 5884 5884 5885 5886 5887 5887 5887 5888 5889 5890 5891 5892 5893 5894 5894 5895 5895 5895 5895 5895 5895 5894 5894 5893 5892 5891 5891 5891 5890 5890
5842 5847 5849 5853 5856 5861 5862 5863 5865 5867 5870 5873 5876 5877 5878 5879 5881 5882 5882 5883 5884 5885 5885 5886 5887 5888 5888 5889 5890 5891 5892 5893 5893 5894 5894 5894 5894 5894 5894 5894 5893 5892 5892 5891 5890 5889 5889 5888 5887
5838 5842 5846 5849 5851 5854 5856 5858 5860 5863 5866 5870 5873 5875 5876 5878 5879 5880 5881 5882 5883 5884 5885 5886 5887 5888 5889 5890 5890 5891 5892 5892 5893 5893 5893 5893 5893 5893 5893 5893 5892 5891 5890 5889 5888 5887 5886 5886 5885
5833 5838 5841 5842 5844 5847 5849 5852 5854 5858 5862 5866 5870 5872 5874 5876 5878 5879 5880 5882 5883 5884 5885 5886 5887 5888 5889 5889 5890 5890 5891 5891 5892 5892 5892 5892 5892 5892 5892 5891 5891 5890 5889 5888 5887 5885 5884 5883 5882
5827 5831 5834 5836 5838 5841 5844 5846 5849 5853 5859 5863 5866 5869 5872 5874 5876 5878 5879 5881 5882 5883 5884 5886 5887 5887 5888 5889 5889 5890 5890 5891 5891 5891 5891 5891 5891 5891 5890 5890 5889 5888 5887 5886 5884 5883 5882 5881 5880
5821 5825 5828 5830 5833 5836 5839 5842 5845 5849 5855 5859 5863 5867 5870 5872 5874 5876 5878 5880 5881 5882 5883 5885 5886 5887 5887 5888 5889 5889 5890 5890 5890 5890 5890 5890 5890 5889 5889 5888 5887 5886 5885 5883 5882 5880 5879 5878 5877
5815 5819 5823 5826 5828 5831 5835 5838 5841 5847 5851 5856 5860 5864 5867 5870 5872 5874 5876 5878 5880 5881 5882 5884 5885 5886 5887 5887 5888 5888 5888 5888 5888 5888 5888 5888 5887 5887 5887 5886 5885 5883 5882 5881 5879 5878 5877 5875 5874
5810 5815 5820 5822 5825 5827 5831 5835 5839 5845 5848 5853 5857 5861 5864 5867 5869 5872 5874 5876 5878 5879 5881 5882 5884 5885 5885 5886 5886 5886 5886 5886 5886 5886 5886 5885 5885 5884 5884 5883 5881 5880 5879 5878 5876 5875 5874 5872 5871
5806 5811 5816 5819 5821 5824 5829 5833 5837 5841 5844 5849 5853 5857 5861 5864 5867 5869 5871 5873 5875 5877 5879 5880 5882 5883 5883 5884 5884 5883 5883 5883 5883 5883 5883 5882 5882 5881 5880 5879 5878 5876 5875 5874 5873 5871 5870 5868 5867
5801 5807 5811 5815 5818 5820 5825 5829 5833 5836 5840 5844 5849 5853 5857 5861 5864 5866 5868 5869 5871 5874 5875 5877 5879 5880 5880 5881 5881 5880 5880 5880 5879 5878 5878 5877 5877 5876 5875 5874 5872 5871 5870 5869 5868 5867 5865 5864 5863
5797 5802 5807 5810 5814 5817 5821 5826 5829 5832 5836 5840 5844 5849 5853 5857 5861 5863 5865 5866 5868 5869 5871 5873 5875 5876 5876 5877 5877 5877 5877 5875 5874 5872 5872 5872 5871 5869 5868 5867 5866 5865 5864 5863 5862 5861 5860 5859 5857
5792 5798 5802 5807 5810 5814 5817 5821 5825 5828 5831 5835 5840 5844 5849 5853 5857 5859 5861 5863 5863 5865 5867 5868 5870 5871 5872 5873 5873 5872 5871 5870 5869 5867 5866 5865 5863 5862 5861 5860 5860 5858 5857 5856 5855 5855 5854 5853 5851
5787 5794 5799 5803 5806 5810 5814 5817 5821 5824 5827 5831 5835 5840 5844 5848 5852 5855 5857 5858 5859 5860 5862 5864 5865 5866 5866 5867 5867 5867 5865 5864 5862 5861 5859 5857 5856 5855 5854 5853 5852 5851 5850 5849 5848 5847 5846 5845 5844
5784 5790 5795 5798 5802 5806 5811 5814 5817 5820 5823 5827 5830 5835 5839 5843 5847 5850 5852 5854 5855 5856 5858 5859 5860 5860 5861 5861 5861 5860 5859 5857 5856 5854 5852 5851 5850 5848 5846 5845 5844 5843 5843 5842 5841 5840 5839 5837 5836
5781 5786 5790 5794 5798 5803 5807 5810 5813 5816 5819 5822 5826 5830 5834 5838 5842 5845 5847 5849 5850 5851 5852 5853 5854 5855 5855 5855 5854 5853 5851 5849 5848 5846 5845 5844 5842 5840 5839 5837 5836 5836 5835 5835 5833 5832 5831 5829 5827
5777 5781 5786 5790 5795 5800 5803 5807 5810 5813 5816 5819 5822 5826 5830 5834 5837 5840 5842 5844 5845 5846 5846 5847 5848 5849 5849 5848 5847 5846 5843 5841 5839 5838 5837 5836 5834 5833 5832 5831 5829 5828 5828 5827 5825 5824 5822 5820 5818
5773 5778 5783 5788 5792 5797 5801 5804 5808 5810 5814 5817 5820 5823 5826 5829 5832 5834 5836 5838 5839 5840 5840 5841 5842 5842 5842 5841 5839 5837 5836 5834 5831 5829 5829 5828 5827 5825 5824 5823 5821 5820 5819 5818 5816 5815 5813 5810 5808
5771 5776 5781 5786 5790 5794 5797 5800 5804 5807 5811 5814 5817 5819 5822 5825 5827 5829 5830 5832 5833 5833 5834 5834 5834 5834 5833 5832 5830 5828 5827 5826 5824 5822 5821 5820 5819 5818 5816 5815 5813 5811 5810 5808 5807 5805 5803 5801 5798
5769 5774 5779 5784 5787 5791 5794 5796 5801 5803 5807 5810 5812 5815 5817 5820 5821 5823 5824 5825 5826 5826 5826 5827 5826 5825 5825 5823 5821 5819 5819 5817 5816 5814 5812 5811 5810 5809 5808 5806 5804 5802 5800 5798 5796 5794 5792 5789 5787
5767 5771 5776 5780 5784 5787 5789 5792 5796 5799 5802 5805 5807 5809 5811 5813 5815 5816 5817 5818 5818 5819 5819 5819 5817 5816 5815 5813 5812 5811 5809 5808 5806 5805 5803 5802 5801 5799 5798 5796 5794 5792 5790 5787 5785 5783 5780 5777 5774
5766 5769 5773 5777 5780 5783 5785 5787 5790 5793 5796 5799 5801 5803 5804 5806 5807 5808 5809 5809 5810 5810 5811 5810 5809 5807 5806 5804 5803 5802 5800 5798 5796 5795 5794 5792 5791 5789 5787 5785 5783 5780 5778 5776 5773 5770 5767 5764 5760
5764 5767 5770 5773 5776 5779 5781 5785 5786 5788 5790 5792 5794 5795 5797 5798 5799 5800 5800 5800 5801 5801 5801 5800 5799 5798 5797 5795 5794 5793 5791 5789 5787 5785 5783 5782 5780 5778 5776 5773 5771 5768 5766 5762 5759 5756 5753 5749 5745
5761 5764 5767 5770 5773 5775 5777 5781 5780 5782 5783 5785 5786 5787 5789 5790 5790 5791 5791 5791 5791 5791 5790 5790 5789 5788 5787 5786 5784 5782 5781 5779 5777 5775 5773 5771 5769 5766 5764 5761 5758 5755 5752 5749 5745 5742 5738 5734 5729